Deer Park, WA
on Wednesday, December 26, 2012

Wednesday
Previous Day Next Day
Daily Summary
 ActualAverageRecord
Temperature
Mean Temperature °F 24°F  
Max Temperature 34°F 31°F 44°F (2004)
Min Temperature 22°F 18°F 5°F (2001)
Degree Days
Heating Degree Days 37 40  
Month to date heating degree days 841 1023  
Since 1 July heating degree days 2578 3026  
Cooling Degree Days 0 0  
Month to date cooling degree days 0 0  
Year to date cooling degree days 232 187  
Moisture
Dew Point 26°F   
Average Humidity 88    
Maximum Humidity 100    
Minimum Humidity 75    
Precipitation
Precipitation 0.01 in 0.11 in 0.37 in (2006)
Month to date precipitation 2.44 2.41  
Year to date precipitation 26.55 21.80  
Wind
Wind Speed 4 mph   
Max Wind Speed 12 mph   
Max Gust Speed 14 mph   
Visibility 8 miles   
Events Snow   

Key: T is trace of precipitation, MM is missing value
Source: NWS Daily Summary
Time(PST)TemperatureDew PointHumidity Pressure Visibility Wind DirectionWind SpeedGust SpeedPrecipitationEvents Conditions
12:53 AM 30.0°F 27.0°F 88% 29.86 in 10.0 miles North 5.8 mph - N/A   Overcast
1:53 AM 30.0°F 27.0°F 88% 29.86 in 10.0 miles NNE 9.2 mph - N/A   Overcast
2:53 AM 28.9°F 27.0°F 92% 29.86 in 10.0 miles NNE 6.9 mph - 0.00 in   Overcast
3:51 AM 28.4°F 26.6°F 93% 29.78 in 10.0 miles NNE 8.1 mph - N/A   Overcast
3:53 AM 28.9°F 27.0°F 92% 29.84 in 10.0 miles NNE 9.2 mph - N/A   Overcast
4:53 AM 28.9°F 26.1°F 89% 29.84 in 10.0 miles NNE 6.9 mph - N/A   Overcast
5:53 AM 30.0°F 26.1°F 85% 29.83 in 10.0 miles NNE 5.8 mph - N/A   Overcast
6:53 AM 30.0°F 26.1°F 85% 29.83 in 10.0 miles NNE 6.9 mph - N/A   Overcast
7:53 AM 28.9°F 25.0°F 85% 29.84 in 10.0 miles NNE 10.4 mph - N/A   Overcast
8:53 AM 30.0°F 24.1°F 79% 29.86 in 10.0 miles NNE 8.1 mph - N/A   Overcast
9:53 AM 30.9°F 26.1°F 82% 29.87 in 10.0 miles NNE 9.2 mph - N/A   Overcast
10:53 AM 32.0°F 26.1°F 79% 29.87 in 10.0 miles NE 6.9 mph - N/A   Overcast
11:53 AM 33.1°F 27.0°F 78% 29.85 in 10.0 miles NNE 4.6 mph - 0.01 in   Overcast
12:53 PM 34.0°F 27.0°F 75% 29.85 in 10.0 miles Calm Calm - N/A   Overcast
1:53 PM 34.0°F 27.0°F 75% 29.86 in 10.0 miles NNE 4.6 mph - N/A   Overcast
2:53 PM 32.0°F 27.0°F 82% 29.87 in 10.0 miles NE 3.5 mph - N/A   Overcast
3:53 PM 30.0°F 26.1°F 85% 29.88 in 10.0 miles Calm Calm - N/A   Overcast
4:53 PM 28.9°F 26.1°F 89% 29.89 in 10.0 miles Calm Calm - N/A   Overcast
5:53 PM 27.0°F 24.1°F 89% 29.90 in 10.0 miles Calm Calm - N/A   Overcast
6:53 PM 27.0°F 26.1°F 96% 29.91 in 10.0 miles Calm Calm - N/A   Mostly Cloudy
7:49 PM 23.0°F 21.2°F 93% 29.85 in 3.0 miles NNW 3.5 mph - N/A   Overcast
7:53 PM 24.1°F 23.0°F 96% 29.93 in 7.0 miles North 3.5 mph - N/A   Overcast
8:53 PM 26.1°F 25.0°F 96% 29.94 in 9.0 miles Calm Calm - N/A   Overcast
9:53 PM 26.1°F 25.0°F 96% 29.95 in 8.0 miles Calm Calm - 0.00 in   Overcast
10:49 PM 26.6°F 24.8°F 93% 29.90 in 2.5 miles Calm Calm - 0.00 in Snow Light Snow
10:53 PM 26.1°F 25.0°F 96% 29.97 in 2.0 miles Calm Calm - 0.00 in Snow Light Snow
10:57 PM 26.6°F 26.6°F 100% 29.90 in 1.5 miles Calm Calm - 0.00 in Snow Light Snow
11:14 PM 26.6°F 26.6°F 100% 29.90 in 3.0 miles Calm Calm - 0.00 in Snow Light Snow
11:25 PM 26.6°F 26.6°F 100% 29.90 in 3.0 miles Calm Calm - 0.00 in Snow Light Snow
11:53 PM 27.0°F 26.1°F 96% 29.97 in 6.0 miles Calm Calm - 0.00 in   Overcast
Moon Phase
Dec. 26 Dec. 28 Jan. 04 Jan. 11 Jan. 18
Sunrise:07:38 AM (PST) Moon Rise:03:01 PM (PST)12/26
Sunset:04:02 PM (PST) Moon Set:06:03 AM (PST)12/26

Copyright © 2014 The Weather Underground, Inc.